Retour au catalogue

STARLINK-36480

ActifCommunicationsVLEO
NORAD 67336·PAYLOAD·🇺🇸 United States

Lancé Jan 9, 2026 depuis Cape Canaveral Space Force Station

Loading…

Prochains Passages (prochaines 24 heures)

TLE

FraisSource: CelesTrak SupGP

Époque: Sep 15, 2026, 03:32 UTC

1 67336C 26003C   26258.14770833 -.00034811  00000+0 -12610-2 0  2580
2 67336  43.0021 237.2642 0001229 259.6404 232.1485 15.27592333    13

Suivez STARLINK-36480 en temps réel avec AllMySat

Download on the App Store